Probability
58 61 55 55 45 42 39 39 32 35 39 26 23 16 23 19 23 26 26 48 39 35 29 26 26 19 19 29 32 35 39 32 26 29 29 32 26 26 26 29 26 23 19
58 61 55 58 48 45 39 39 32 42 45 39 26 29 26 19 29 32 23 35 45 32 32 32 26 19 19 23 29 26 39 32 26 19 26 23 26 26 26 19 19 19 19
65 58 55 55 55 45 39 39 35 35 39 29 32 29 29 32 32 26 23 23 23 35 26 32 35 32 29 29 23 23 23 23 23 19 23 26 23 19 19 19 23 19 19
58 61 52 52 55 45 52 48 45 42 39 35 29 32 32 42 29 23 13 16 26 19 19 26 35 29 26 26 23 23 23 23 26 23 19 23 19 16 16 16 13 16 23
48 55 58 58 48 52 52 42 42 45 42 32 29 32 39 39 26 16 19 16 19 19 19 13 29 32 29 16 19 16 16 19 16 23 19 16 23 16 13 13 10 13 16
52 52 55 55 52 55 48 48 48 48 45 42 16 19 26 32 23 16 16 13 16 13 13 10 19 13 29 26 23 23 16 23 26 23 19 16 19 23 16 13 13 16 16
52 52 52 55 48 52 48 45 48 39 39 45 39 26 32 26 26 19 19 13 19 16 13 19 16 16 16 19 19 19 19 19 26 23 19 23 26 19 16 16 13 16 16
52 35 48 42 45 52 52 45 42 42 39 45 42 29 23 26 19 13 16 16 10 10 16 13 19 16 16 16 13 19 19 19 19 23 23 23 19 23 23 23 16 16 23
48 45 48 45 48 48 45 48 45 45 39 42 35 35 26 26 19 23 16 6 6 10 13 13 19 19 16 13 16 13 19 19 19 19 26 26 19 19 23 23 23 26 23
48 39 42 45 52 52 52 48 39 48 48 35 32 35 35 35 29 19 19 13 13 10 16 13 6 23 23 16 10 10 13 10 10 13 19 13 13 16 23 23 23 26 23
45 39 42 48 48 45 52 45 45 52 52 39 32 32 35 35 32 23 16 16 16 13 13 16 19 19 19 16 16 10 6 3 3 3 10 13 10 10 10 13 10 16 13
42 35 39 39 39 42 42 45 48 52 55 52 48 45 42 39 32 29 19 10 10 16 19 16 23 23 19 23 16 3 0 0 0 0 3 6 10 10 6 10 6 6 6
45 42 35 39 39 42 39 42 48 48 48 48 55 42 35 32 32 29 29 16 19 19 23 16 29 23 10 13 3 0 0 0 0 0 0 0 6 10 10 6 10 10 6
42 39 35 39 39 42 39 39 42 42 42 48 29 45 42 35 39 29 32 19 16 13 16 13 23 19 23 16 6 0 0 0 0 0 0 0 0 0 3 6 6 6 6
35 35 42 45 42 42 39 39 39 39 39 39 35 42 39 39 42 35 35 23 16 13 6 10 6 19 19 16 3 0 6 3 0 0 0 0 0 0 0 0 3 3 3
42 35 35 42 39 39 35 35 45 42 45 39 45 42 42 35 39 39 29 29 29 26 13 19 16 19 10 10 0 13 13 6 0 0 0 0 0 0 0 0 0 0 0
39 35 35 39 42 42 39 42 42 39 42 39 35 35 35 42 39 35 26 26 26 23 13 16 10 23 19 6 10 16 10 6 3 0 0 0 0 0 0 0 0 0 0
35 39 39 42 39 42 42 42 42 42 42 35 35 39 29 26 32 32 32 29 26 29 26 16 13 16 16 16 13 16 13 6 6 0 0 0 0 0 0 0 0 0 0
32 32 35 39 39 39 39 35 32 35 35 32 32 32 26 29 32 29 26 32 32 10 29 26 13 13 26 13 16 13 10 10 6 0 0 0 0 0 0 0 0 0 0
29 29 32 35 35 29 32 26 29 32 29 26 32 29 29 26 26 29 26 32 29 29 26 23 16 16 19 19 19 16 13 23 16 3 0 0 0 0 0 0 0 0 0
26 23 23 26 26 26 16 23 26 19 23 23 26 32 26 19 16 19 16 32 29 29 29 19 19 13 19 19 19 13 6 16 19 10 3 3 0 0 0 0 0 0 0
23 19 19 23 23 13 13 10 16 19 26 23 26 23 19 13 3 3 3 0 10 19 26 19 16 13 10 13 23 13 13 10 16 19 10 6 3 3 3 3 0 0 0
23 23 19 16 26 13 10 3 3 19 19 23 26 26 19 13 13 16 3 0 0 0 0 13 16 16 13 23 19 10 16 16 16 16 16 6 10 10 3 0 0 0 0
19 19 19 19 16 10 10 0 0 6 19 19 19 23 19 19 13 16 19 13 19 10 3 3 13 19 19 16 16 16 19 23 19 19 13 6 13 10 3 0 0 0 0
19 19 16 19 19 13 10 3 0 10 16 19 16 16 19 19 13 6 13 23 29 26 0 0 0 0 0 0 0 6 13 16 13 10 16 6 10 10 6 0 0 0 0
19 19 16 16 19 16 10 3 0 10 13 16 16 16 6 13 6 6 13 16 26 29 23 16 3 0 0 0 0 0 13 10 6 10 6 6 6 6 6 6 3 0 0
Height
5876 5875 5874 5874 5874 5873 5873 5873 5873 5873 5873 5873 5873 5873 5874 5874 5874 5874 5874 5874 5874 5874 5874 5875 5875 5875 5875 5875 5875 5875 5876 5875 5875 5875 5875 5875 5875 5875 5875 5875 5875 5874 5874
5874 5874 5873 5873 5873 5872 5872 5871 5872 5871 5871 5872 5872 5872 5872 5872 5872 5872 5872 5872 5872 5872 5872 5873 5873 5873 5873 5873 5873 5873 5873 5873 5873 5873 5873 5873 5873 5872 5872 5872 5872 5872 5871
5873 5872 5872 5871 5871 5871 5871 5870 5870 5870 5870 5870 5870 5870 5870 5870 5870 5870 5870 5870 5870 5870 5870 5870 5870 5870 5870 5870 5870 5870 5870 5870 5870 5870 5870 5870 5870 5869 5869 5869 5869 5869 5868
5871 5871 5870 5870 5869 5869 5869 5869 5869 5868 5868 5868 5868 5868 5868 5868 5868 5868 5868 5868 5868 5868 5868 5868 5868 5867 5867 5867 5867 5867 5867 5867 5867 5867 5866 5866 5866 5866 5866 5866 5866 5866 5866
5869 5869 5868 5868 5867 5867 5867 5866 5866 5866 5866 5866 5866 5865 5866 5866 5866 5866 5865 5865 5865 5865 5865 5865 5865 5864 5864 5864 5864 5864 5864 5864 5863 5863 5863 5863 5863 5863 5863 5862 5862 5862 5862
5868 5867 5866 5866 5865 5865 5865 5864 5864 5864 5863 5863 5863 5863 5863 5863 5863 5863 5863 5863 5862 5862 5862 5862 5862 5861 5861 5861 5861 5860 5860 5860 5860 5859 5859 5859 5859 5859 5859 5859 5859 5859 5859
5865 5864 5864 5863 5863 5862 5862 5862 5862 5861 5861 5861 5861 5861 5861 5860 5860 5860 5860 5860 5859 5859 5859 5859 5858 5858 5858 5858 5857 5857 5856 5856 5856 5856 5855 5855 5855 5855 5855 5855 5855 5855 5855
5862 5861 5861 5860 5860 5859 5859 5859 5859 5858 5858 5858 5859 5858 5858 5858 5858 5858 5857 5856 5856 5855 5855 5855 5855 5855 5854 5854 5854 5853 5852 5852 5852 5852 5851 5851 5851 5851 5851 5851 5851 5851 5851
5858 5857 5857 5857 5856 5856 5856 5855 5855 5855 5855 5855 5855 5855 5855 5855 5855 5854 5853 5853 5851 5852 5852 5852 5851 5851 5850 5850 5849 5849 5848 5848 5848 5848 5847 5847 5847 5847 5847 5847 5847 5847 5847
5854 5853 5853 5852 5852 5852 5851 5851 5851 5851 5851 5851 5851 5851 5851 5851 5851 5851 5850 5849 5849 5849 5848 5848 5847 5847 5846 5845 5845 5844 5844 5844 5843 5843 5843 5843 5843 5843 5843 5843 5843 5843 5843
5851 5850 5848 5848 5847 5847 5847 5847 5847 5847 5846 5847 5847 5847 5847 5847 5846 5847 5846 5846 5845 5845 5844 5843 5843 5842 5841 5841 5840 5840 5840 5839 5839 5839 5839 5839 5839 5839 5838 5839 5839 5839 5839
5846 5845 5844 5843 5843 5842 5842 5841 5841 5842 5842 5843 5843 5843 5843 5842 5842 5842 5842 5841 5840 5840 5839 5839 5839 5837 5836 5836 5836 5835 5835 5835 5835 5834 5834 5834 5834 5834 5834 5834 5834 5834 5834
5841 5840 5839 5839 5838 5837 5837 5837 5837 5837 5837 5838 5838 5838 5838 5838 5837 5837 5837 5836 5836 5836 5835 5835 5834 5833 5832 5831 5831 5831 5830 5830 5830 5830 5830 5830 5830 5830 5829 5829 5829 5829 5829
5836 5834 5834 5833 5833 5832 5832 5832 5832 5832 5833 5833 5833 5833 5833 5833 5832 5832 5832 5832 5832 5832 5831 5830 5829 5828 5827 5827 5827 5826 5826 5825 5825 5825 5825 5825 5825 5825 5825 5825 5824 5824 5824
5830 5829 5829 5828 5827 5827 5827 5826 5827 5827 5827 5827 5827 5828 5828 5828 5827 5827 5827 5826 5827 5826 5826 5825 5824 5824 5823 5822 5822 5822 5821 5821 5820 5820 5820 5819 5820 5820 5820 5820 5819 5819 5819
5824 5823 5823 5822 5822 5821 5821 5820 5820 5821 5821 5821 5822 5822 5822 5822 5822 5822 5822 5821 5821 5821 5821 5820 5819 5819 5818 5818 5817 5817 5816 5816 5815 5815 5814 5814 5814 5814 5814 5814 5814 5814 5814
5817 5816 5816 5816 5815 5815 5814 5814 5815 5815 5815 5815 5816 5816 5816 5816 5816 5816 5816 5816 5816 5815 5815 5815 5814 5813 5813 5812 5811 5811 5811 5811 5810 5809 5809 5809 5809 5809 5809 5809 5809 5809 5808
5810 5810 5809 5808 5808 5808 5808 5808 5808 5808 5808 5809 5810 5810 5811 5811 5811 5811 5811 5810 5810 5809 5809 5809 5809 5808 5808 5807 5806 5806 5806 5805 5805 5804 5804 5804 5804 5803 5803 5803 5803 5803 5803
5802 5802 5801 5801 5801 5801 5801 5801 5801 5801 5802 5803 5803 5804 5804 5804 5804 5804 5804 5804 5804 5803 5803 5803 5803 5802 5802 5802 5801 5801 5800 5800 5799 5799 5798 5798 5798 5798 5798 5798 5797 5797 5797
5795 5794 5794 5794 5793 5793 5793 5794 5794 5794 5795 5796 5796 5797 5797 5798 5798 5798 5798 5798 5798 5797 5797 5797 5797 5796 5796 5796 5796 5795 5795 5795 5794 5794 5793 5793 5793 5792 5792 5792 5791 5791 5791
5787 5787 5786 5786 5786 5785 5786 5786 5786 5786 5787 5788 5789 5790 5790 5791 5791 5791 5792 5792 5792 5791 5791 5790 5790 5790 5790 5790 5790 5789 5789 5789 5789 5788 5788 5787 5787 5786 5786 5785 5785 5785 5784
5778 5778 5778 5778 5778 5778 5778 5778 5778 5779 5780 5780 5782 5782 5783 5784 5785 5785 5785 5785 5785 5785 5785 5784 5784 5784 5784 5784 5784 5783 5783 5783 5783 5782 5781 5781 5781 5780 5780 5779 5779 5778 5778
5770 5770 5770 5770 5771 5771 5770 5771 5771 5772 5772 5773 5774 5775 5776 5777 5777 5778 5778 5778 5778 5779 5779 5778 5778 5778 5778 5778 5777 5777 5777 5776 5776 5775 5775 5775 5774 5774 5773 5773 5772 5772 5771
5762 5762 5762 5762 5763 5763 5763 5763 5763 5764 5765 5766 5766 5767 5768 5769 5769 5770 5771 5771 5772 5772 5772 5772 5772 5772 5771 5771 5771 5771 5770 5770 5770 5769 5768 5768 5768 5767 5767 5766 5765 5765 5764
5753 5753 5753 5753 5754 5755 5755 5755 5755 5756 5757 5757 5758 5759 5759 5760 5761 5762 5763 5763 5764 5764 5764 5765 5765 5765 5764 5764 5764 5764 5764 5763 5763 5762 5761 5761 5761 5760 5760 5760 5759 5758 5758
5745 5745 5744 5745 5745 5746 5747 5747 5747 5747 5748 5749 5750 5750 5751 5752 5753 5753 5754 5755 5756 5756 5757 5758 5758 5758 5758 5757 5757 5757 5756 5756 5755 5755 5754 5754 5754 5753 5754 5753 5752 5751 5751
Wind_Speed
8 8 7 7 7 7 8 7 7 7 8 8 9 9 8 9 9 9 8 8 8 8 8 7 9 9 10 10 10 10 11 11 11 11 11 11 11 11 11 11 11 10 11
8 9 9 8 8 7 8 8 8 8 9 9 9 9 9 9 9 9 9 8 8 9 9 9 9 10 10 10 11 11 11 11 12 12 12 12 13 12 12 12 12 12 11
10 9 9 8 8 9 9 9 9 9 9 10 9 9 9 9 9 9 9 9 9 9 9 9 9 10 10 11 11 12 12 12 12 13 13 13 13 13 13 13 13 12 12
10 10 10 10 10 10 10 10 10 11 11 11 11 11 10 10 10 10 9 10 10 10 10 10 11 11 11 12 12 12 13 13 13 13 13 14 14 14 14 14 14 13 13
11 11 11 11 11 12 11 12 12 12 12 12 12 11 12 12 11 11 11 12 12 11 11 11 11 12 12 13 13 14 14 14 14 14 14 14 14 15 15 15 15 15 14
13 13 13 13 13 13 12 13 12 11 11 11 12 12 12 12 12 12 12 13 13 13 13 12 13 13 13 14 14 14 15 16 16 16 15 15 15 15 15 15 16 16 15
15 15 15 15 15 15 14 14 13 12 12 12 12 12 13 12 12 12 13 13 12 12 13 13 13 14 14 14 15 15 15 16 16 16 15 15 15 15 15 16 16 16 15
17 17 17 17 16 16 16 16 15 14 14 14 13 13 13 13 12 13 14 14 13 13 13 14 14 14 15 15 15 15 15 15 16 16 16 16 15 15 16 16 15 15 15
18 18 18 18 18 18 17 17 17 16 16 15 15 14 15 15 14 14 14 14 13 13 14 14 15 15 16 16 15 15 16 16 16 16 16 16 16 15 16 16 16 15 15
19 19 19 19 19 20 19 19 19 18 18 17 16 16 16 16 15 15 15 16 15 15 15 15 16 16 16 16 16 16 16 16 16 16 16 16 15 16 16 16 16 16 16
20 20 20 19 20 20 20 21 20 20 19 18 17 17 17 18 17 17 16 16 16 16 16 16 16 17 17 17 17 17 17 17 17 17 17 17 16 17 17 17 16 16 17
22 22 21 19 20 21 20 20 20 21 20 19 19 19 19 19 19 19 18 18 17 17 17 17 17 17 17 18 17 17 17 17 17 17 17 18 17 18 18 17 17 17 18
24 23 22 21 21 20 20 20 20 20 20 20 20 20 20 20 20 20 20 19 18 18 18 18 19 18 18 18 18 18 17 17 17 17 17 18 18 18 18 17 17 18 18
25 24 23 22 22 21 21 21 21 21 22 22 21 21 21 20 20 20 20 20 19 19 19 18 19 19 18 18 18 18 18 18 18 18 18 18 18 18 17 17 18 18 18
26 25 25 24 23 23 23 23 23 22 22 22 21 21 21 21 20 20 20 20 19 19 19 19 20 19 19 18 18 18 18 18 18 19 19 19 19 18 18 18 19 19 19
27 26 26 26 25 24 24 23 23 22 22 22 21 21 21 21 21 21 20 20 20 20 19 19 20 20 20 19 19 19 19 19 19 19 19 19 20 19 19 19 20 20 20
28 28 27 27 26 25 24 24 24 24 24 23 22 21 21 21 20 20 20 20 20 20 20 20 20 21 21 20 20 20 20 19 19 19 20 20 20 20 19 20 20 21 20
29 29 29 28 27 26 26 25 25 25 25 23 23 22 22 22 22 21 21 21 21 21 22 21 21 21 21 20 20 20 19 19 19 19 19 19 19 20 20 20 20 20 20
30 30 29 28 28 27 27 27 26 26 25 24 24 23 23 24 23 23 22 22 22 22 23 22 21 21 21 21 20 19 19 19 19 19 19 19 20 20 20 20 20 20 20
30 30 29 28 28 28 28 28 27 26 26 25 25 25 25 25 24 23 22 22 22 22 22 22 22 22 21 21 21 20 20 19 20 20 19 19 20 20 20 21 21 21 21
30 30 29 28 27 27 27 27 27 26 25 26 26 26 25 25 24 22 22 22 23 23 22 22 22 21 21 21 21 20 20 20 20 20 20 20 21 21 21 21 21 21 22
30 30 29 28 27 27 28 28 27 26 26 26 26 26 26 25 25 24 23 23 23 22 22 21 21 21 21 21 21 21 21 20 20 20 20 20 21 21 21 21 21 21 21
28 28 28 28 28 27 26 26 27 27 26 26 26 27 27 27 26 26 25 25 23 23 23 22 21 21 21 22 22 22 22 21 21 21 21 21 21 21 21 21 21 21 20
29 30 29 28 27 27 27 27 28 28 28 28 28 28 29 29 28 28 27 27 26 25 24 24 23 22 22 22 22 22 22 22 22 22 22 21 21 21 21 20 20 20 20
30 31 30 29 28 29 28 28 29 29 29 29 29 30 29 30 29 29 29 28 27 26 26 25 24 23 23 23 23 23 22 22 22 22 22 22 21 21 21 20 20 20 20
31 30 30 29 29 29 29 30 29 29 30 30 30 30 30 30 29 29 29 28 28 27 26 26 25 24 23 23 23 23 23 22 22 22 22 21 21 21 21 20 20 20 20
Wind_Direction
311 311 305 298 293 292 287 282 276 271 264 264 269 270 271 269 272 273 273 272 278 279 279 281 286 285 285 287 286 284 283 282 280 279 279 278 277 276 274 274 275 276 276
308 306 306 300 290 290 292 293 286 279 272 270 273 270 275 273 273 276 275 276 279 279 280 281 284 284 283 282 286 288 286 282 280 278 278 277 277 277 277 274 278 276 276
310 309 305 299 293 287 286 286 289 281 278 275 275 272 276 278 282 281 279 281 281 282 283 284 284 285 284 282 285 287 286 285 283 281 277 275 276 276 275 275 278 278 277
305 306 308 299 294 290 287 284 284 276 274 275 275 273 273 278 282 282 281 280 280 278 280 283 285 287 284 282 284 285 285 286 285 283 279 276 276 275 274 273 274 278 278
301 302 301 296 291 290 289 287 285 278 272 269 270 273 274 278 279 283 283 283 283 282 280 281 283 284 283 283 283 283 284 284 286 283 280 278 277 273 274 271 272 276 278
297 296 296 294 290 290 290 289 286 279 274 274 273 276 279 276 278 280 279 284 285 283 283 283 282 282 282 283 284 285 285 285 285 284 280 277 275 274 274 272 273 276 274
294 292 293 291 289 288 286 287 284 280 277 281 279 277 279 277 277 280 283 285 284 285 284 284 282 280 281 283 284 285 285 284 284 283 282 279 277 276 277 274 273 273 273
292 289 287 288 288 286 284 284 283 283 281 278 280 280 279 277 277 281 283 283 283 286 286 283 283 281 280 282 284 284 286 284 284 283 281 279 277 277 278 275 275 275 273
290 287 285 286 286 283 282 281 281 280 278 276 278 281 282 281 282 282 282 285 287 286 286 288 287 285 284 281 281 282 284 284 283 283 281 278 277 277 275 274 275 275 275
290 289 287 287 287 284 279 278 279 276 275 275 277 279 280 281 281 282 283 283 286 287 288 289 290 290 286 284 285 287 287 287 285 283 282 280 277 277 277 276 274 274 276
292 291 290 288 288 286 280 277 275 273 273 275 277 280 278 278 279 282 281 282 284 284 285 285 287 288 287 286 286 287 286 287 286 283 281 279 278 277 277 277 274 275 276
294 294 292 290 290 288 284 279 272 272 273 274 276 277 279 279 279 278 279 280 283 284 285 286 287 288 287 287 286 285 285 286 285 283 281 280 279 279 279 276 275 276 276
293 293 290 290 290 289 286 280 274 274 275 275 276 277 280 281 278 277 278 280 282 283 284 287 288 287 285 284 283 283 283 284 283 282 281 280 279 279 278 277 278 278 278
289 291 289 288 287 287 285 280 275 273 274 274 276 278 279 279 277 277 278 278 280 282 283 285 286 288 284 282 282 283 282 282 282 282 281 279 278 277 277 279 279 279 278
288 289 288 286 286 284 282 280 276 272 273 274 275 277 277 277 277 277 278 279 280 283 282 282 284 287 285 284 282 283 281 280 281 280 279 278 277 277 277 278 278 278 277
285 286 286 284 284 284 282 279 277 273 273 274 275 275 275 276 278 276 277 278 278 281 283 283 283 284 283 281 281 281 281 283 283 280 277 276 277 277 277 277 277 278 277
283 284 284 283 283 282 280 278 276 273 273 272 273 274 274 274 274 273 275 276 278 281 283 282 282 282 282 280 279 280 280 281 282 280 278 276 276 276 277 277 277 278 277
280 281 281 281 281 279 276 274 273 272 271 271 270 272 272 272 274 274 275 275 277 281 282 281 280 279 278 280 282 281 280 280 279 280 279 278 277 279 280 279 278 278 278
280 281 281 280 278 277 274 272 271 269 269 268 268 270 271 273 274 275 275 275 277 279 280 281 279 279 279 279 282 284 281 279 279 279 278 278 278 278 279 279 278 278 279
277 278 278 278 276 275 274 272 269 268 267 267 267 268 270 272 274 275 275 276 277 278 280 280 279 279 278 279 281 281 281 282 281 279 277 276 277 277 277 277 277 277 278
276 276 275 275 276 276 274 271 268 267 266 266 267 267 268 269 269 272 273 275 277 279 281 280 279 279 279 279 279 279 279 281 281 280 278 278 278 278 277 276 276 276 276
275 273 272 274 276 277 274 271 268 266 267 267 267 268 268 267 268 270 271 273 275 277 279 279 280 279 280 279 279 279 280 280 282 280 281 282 283 283 281 278 277 276 276
278 276 273 273 275 276 273 270 267 266 266 268 267 267 267 267 267 269 269 271 274 275 275 277 280 280 280 279 279 280 280 280 282 283 282 282 282 282 282 281 280 279 277
279 277 275 273 273 273 272 270 269 268 266 267 268 268 268 266 266 265 266 270 271 272 274 275 277 278 278 278 279 280 280 281 282 283 283 281 280 280 280 281 280 278 276
279 277 275 273 272 272 272 272 270 269 267 267 267 267 267 266 265 265 265 266 267 268 270 272 276 277 277 278 278 280 281 282 282 281 280 280 279 279 279 279 279 278 276
277 275 274 274 274 273 272 272 272 271 269 268 268 267 266 266 266 265 264 264 264 266 267 270 272 275 278 278 279 279 280 281 280 279 279 278 277 277 277 278 277 277 276